Probability
0 0 0 0 0 0 0 0 0 0 0 0 0 0 0 0 0 0 0 0 0 0 0 0 0 0 0 0 0 0 0 0 0 0 0 0 0 0
0 0 0 0 0 0 0 0 0 0 0 0 0 0 0 0 0 0 0 0 0 0 0 0 0 0 0 0 0 0 0 0 0 0 0 0 0 0
0 0 0 0 0 0 0 0 0 0 0 0 0 0 0 0 0 0 0 0 0 0 0 0 0 0 0 0 0 0 0 0 0 0 0 0 0 0
0 0 0 0 0 0 0 0 0 0 0 0 0 0 0 0 0 0 0 0 0 0 0 0 0 0 0 0 0 0 0 0 0 0 0 0 0 0
0 0 0 0 0 0 0 0 0 0 0 0 0 0 0 0 0 0 0 0 0 0 0 0 0 0 0 0 0 0 0 0 0 0 0 0 0 0
0 0 0 0 0 0 0 0 0 0 0 0 0 0 0 0 0 0 0 0 0 0 0 0 0 0 0 0 0 0 0 0 0 0 0 0 0 0
0 0 0 0 0 0 0 0 0 0 0 0 0 0 0 0 0 0 0 0 0 0 0 0 0 0 0 0 0 0 0 0 0 0 0 0 0 0
0 0 0 0 0 0 0 0 0 0 0 0 0 0 0 0 0 0 0 0 0 0 0 0 0 0 0 0 0 0 0 0 0 0 0 0 0 0
0 0 0 0 0 0 0 0 0 0 0 0 0 0 0 0 0 0 0 0 0 0 0 0 0 0 0 0 0 0 0 0 0 0 0 0 0 0
0 0 0 0 0 0 0 0 0 0 0 0 0 0 0 0 0 0 0 0 0 0 0 0 0 0 0 0 0 0 0 0 0 0 0 0 0 0
0 0 0 0 0 0 0 0 0 0 0 0 0 0 0 0 0 0 0 0 0 0 0 0 0 0 0 0 0 0 0 0 0 0 0 0 0 0
0 0 0 0 0 0 0 0 0 0 0 0 0 0 0 0 0 0 0 0 0 0 0 0 0 0 0 0 0 0 0 0 0 0 0 0 0 0
0 0 0 0 0 0 0 0 0 0 0 0 0 0 0 0 0 0 0 0 0 0 0 0 0 0 0 0 0 0 0 0 0 0 0 0 0 0
0 0 0 0 0 0 0 0 0 0 0 0 0 0 0 0 0 0 0 0 0 0 0 0 0 0 0 0 0 0 0 0 0 0 0 0 0 0
0 0 0 0 0 0 0 0 0 0 0 0 0 0 0 0 0 0 0 0 0 0 0 0 0 0 0 0 0 0 0 0 0 0 0 0 0 0
0 0 0 0 0 0 0 0 0 0 0 0 0 0 0 0 0 0 0 0 0 0 0 0 0 0 0 0 0 0 0 0 0 0 0 0 0 0
0 0 0 0 0 0 0 0 0 0 0 0 0 0 0 0 0 0 0 0 0 0 0 0 0 0 0 0 0 0 0 0 0 0 0 0 0 0
0 0 0 0 0 0 0 0 0 0 0 0 0 0 0 0 0 0 0 0 0 0 0 0 0 0 0 0 0 0 0 0 0 0 0 0 0 0
0 0 0 0 0 0 0 0 0 0 0 0 0 0 0 0 0 0 0 0 0 0 0 0 0 0 0 0 0 0 0 0 0 0 0 0 0 0
0 0 0 0 0 0 0 0 0 0 0 0 0 0 0 0 0 0 0 0 0 0 0 0 0 0 0 0 0 0 0 0 0 0 0 0 0 0
0 0 0 0 0 0 0 0 0 0 0 0 0 0 0 0 0 0 0 0 0 0 0 0 0 0 0 0 0 0 0 0 0 0 0 0 0 0
0 0 0 0 0 0 0 0 0 0 0 0 0 0 0 0 0 0 0 0 0 0 0 0 0 0 0 0 0 0 0 0 0 0 0 0 0 0
0 0 0 0 0 0 0 0 0 0 0 0 0 0 0 0 0 0 0 0 0 0 0 0 0 0 0 0 0 0 0 0 0 0 0 0 0 0
Wind_Speed
4 4 3 3 3 3 3 3 3 4 5 4 3 2 3 2 4 3 4 6 7 7 7 6 6 6 7 7 7 7 7 7 8 9 9 10 10 10
3 4 4 3 3 3 3 3 3 4 5 3 3 3 3 3 4 3 4 6 7 7 7 7 6 7 7 7 7 7 7 8 9 9 10 10 10 10
4 4 4 3 3 3 3 3 3 3 5 4 2 2 3 3 3 3 3 3 3 6 7 7 7 7 7 7 7 7 7 8 9 9 10 11 11 10
5 4 5 3 4 3 3 4 4 3 4 5 3 2 3 3 3 3 3 3 3 5 6 7 7 7 7 7 7 7 7 8 8 9 10 11 11 11
5 5 5 4 5 4 4 4 3 3 3 4 3 2 2 2 2 2 2 2 3 3 5 6 6 6 7 7 7 7 7 8 8 9 9 10 10 11
5 5 5 6 6 6 5 5 4 3 3 3 3 2 2 1 1 2 2 2 2 2 3 4 5 6 6 7 7 7 7 8 9 9 9 9 9 10
5 5 6 7 8 7 5 4 4 4 4 3 3 2 2 2 2 2 3 2 2 2 1 2 3 3 3 6 7 7 7 8 9 9 9 9 9 9
5 5 5 7 8 9 10 8 6 6 5 5 4 5 5 4 3 2 2 1 3 2 1 3 2 3 3 3 6 7 8 8 8 8 8 8 8 9
5 4 4 5 6 5 7 8 8 9 8 6 6 6 5 5 4 4 3 3 4 2 1 3 2 3 3 4 7 7 7 7 7 8 8 8 8 8
4 4 5 5 5 4 4 4 5 5 6 6 6 5 4 4 5 4 4 2 2 1 1 2 2 3 3 3 7 6 6 7 7 7 7 8 8 8
4 4 4 4 6 5 4 4 4 3 4 4 4 3 4 4 3 2 2 1 2 2 1 1 2 2 3 3 4 6 6 7 7 7 8 8 7 7
3 3 5 4 5 5 3 4 4 3 2 1 2 2 3 4 4 4 4 3 2 2 2 1 1 1 2 2 2 3 4 5 7 7 8 8 7 4
2 2 3 5 5 5 4 3 4 2 2 2 2 1 1 1 1 1 2 3 3 3 3 2 1 1 1 3 3 2 2 3 3 4 6 7 7 4
3 2 3 4 4 4 3 2 1 1 1 2 2 2 2 1 1 1 1 1 2 3 3 3 2 2 1 2 3 2 2 2 2 3 3 6 6 6
2 4 4 3 3 2 2 2 1 1 2 2 2 2 1 1 1 1 1 1 1 1 1 2 2 2 2 2 2 2 3 3 2 2 3 3 3 2
2 2 3 2 1 1 1 1 1 1 2 2 2 1 1 1 1 1 1 0 1 1 1 0 1 2 2 2 2 3 2 2 2 3 3 3 2 2
1 0 0 0 1 1 1 0 1 1 1 1 2 1 1 1 1 1 0 0 0 0 1 1 2 1 2 2 2 2 2 2 2 2 3 3 3 2
1 1 1 1 2 2 1 1 1 1 1 1 1 2 2 1 1 0 0 1 1 1 1 0 1 2 2 2 1 2 2 2 2 2 2 3 4 3
1 1 1 2 2 1 1 1 1 1 1 1 2 1 1 1 1 1 1 0 1 1 1 1 0 0 1 3 3 2 1 2 2 2 2 2 4 4
1 1 2 1 1 1 1 1 1 0 1 1 1 1 1 1 1 1 1 1 1 0 0 1 1 1 1 2 2 3 3 2 2 2 3 3 3 5
1 1 1 1 1 1 1 1 1 1 1 1 1 1 1 1 1 1 1 2 1 1 1 1 2 2 1 1 1 2 3 4 3 2 2 2 3 3
1 1 1 1 1 1 1 1 1 1 1 1 1 1 1 1 1 1 1 1 1 1 1 1 1 1 1 0 1 2 3 4 4 5 4 2 1 2
1 1 1 1 1 1 2 2 1 1 1 1 1 1 1 1 1 1 1 1 1 1 0 0 1 1 1 0 0 1 2 4 3 3 3 5 5 6
Wind_Direction
242 243 246 248 235 234 235 222 221 249 260 251 250 249 248 250 244 231 229 237 243 246 250 250 255 263 267 272 276 281 288 289 288 288 287 289 293 297
248 243 248 251 248 240 237 237 235 235 253 244 246 253 251 257 256 246 232 242 241 241 248 251 255 262 265 267 271 275 281 285 286 286 285 287 288 293
254 247 249 249 252 252 248 241 240 236 252 271 265 259 254 251 265 255 246 235 235 244 251 255 257 258 262 265 269 272 275 281 283 284 287 286 285 288
248 246 249 247 246 249 246 244 240 236 240 263 271 267 258 251 250 254 263 252 242 249 251 259 261 261 262 262 267 272 277 280 282 282 282 284 286 285
246 245 247 242 246 250 249 242 238 240 236 243 257 267 270 264 273 275 274 267 261 255 251 255 262 266 264 263 266 270 275 277 278 279 280 280 283 285
249 244 243 241 243 244 246 241 234 230 230 236 244 248 251 256 242 255 275 279 277 279 265 269 271 271 266 266 265 267 270 272 274 275 277 277 278 283
260 254 249 251 251 248 248 238 228 226 226 231 234 237 232 229 232 241 244 274 277 244 266 274 273 266 263 266 267 268 272 274 273 274 274 273 274 277
260 260 259 254 258 257 256 249 237 229 224 223 232 231 235 231 232 230 229 238 267 230 234 270 260 262 269 268 271 277 279 276 274 275 276 274 272 274
252 255 263 264 263 254 255 252 249 248 238 227 227 230 229 221 213 221 226 236 253 238 207 255 257 267 278 277 279 279 284 286 283 279 277 277 275 275
249 247 251 259 262 262 250 248 248 248 244 238 231 230 227 218 213 217 221 244 276 258 205 245 263 272 287 279 272 272 286 296 291 284 281 281 281 277
256 255 257 253 265 266 255 248 251 261 264 249 246 237 224 218 196 165 174 187 250 258 223 227 262 297 289 277 275 283 293 297 299 299 294 287 282 279
261 260 265 273 268 266 240 229 234 237 218 226 236 236 221 201 192 191 188 194 214 247 222 202 220 308 298 282 287 293 292 290 298 303 306 298 286 278
255 263 267 274 274 273 260 237 238 230 200 200 211 213 210 214 211 212 203 196 206 238 213 184 220 249 243 285 292 291 292 302 301 297 302 303 299 292
251 261 266 272 275 276 274 262 237 216 177 185 195 206 206 215 227 220 231 242 236 233 215 194 200 213 228 273 280 293 299 297 302 300 303 303 305 304
252 263 275 273 266 260 262 238 213 202 184 195 208 221 221 207 173 133 72 41 4 318 214 205 200 212 220 237 259 279 298 295 288 302 306 307 309 314
259 262 272 277 278 253 216 234 241 222 199 202 214 216 174 168 165 146 135 62 34 358 4 11 223 212 244 243 246 265 271 271 290 306 308 311 312 298
235 232 117 229 243 238 220 217 212 203 210 193 176 173 187 179 167 134 145 160 190 261 329 2 9 343 281 255 254 253 266 287 287 304 316 314 304 283
176 167 203 226 227 227 226 249 252 225 213 192 180 179 191 185 167 156 151 175 207 225 251 261 25 9 1 342 285 255 278 289 301 309 314 306 305 306
189 189 217 236 245 238 226 229 255 248 220 191 180 187 187 174 163 179 196 212 237 239 238 216 214 89 332 313 310 304 290 302 310 312 306 296 294 298
207 202 218 231 233 230 224 220 224 233 207 194 182 189 186 175 177 188 194 203 221 239 277 275 254 241 238 252 273 298 305 294 293 300 309 308 298 300
240 226 220 222 227 225 220 212 209 216 219 206 195 194 186 172 179 194 192 192 191 197 243 289 292 337 8 44 337 315 317 317 311 298 298 303 310 315
240 229 227 219 212 207 207 204 204 210 213 212 192 188 185 175 176 183 185 183 191 204 268 315 350 9 23 41 283 296 310 325 330 323 305 282 268 276
244 222 218 213 206 201 199 198 202 215 219 226 194 174 163 169 175 176 176 178 165 159 133 18 1 9 6 296 263 308 320 330 338 343 327 316 307 300